This is the latest recevied weather packets stored in our database for station/object WX1N. If no packets are shown the sender has not sent any weather packets the latest 10 day(s).
| Time | Temp. | Humidity | Pressure | Rain* | Wind** | Luminosity | Snow |
|---|---|---|---|---|---|---|---|
| 1777476604 | 17.22° C | 57% | 1012.4 hPa | 0 mm | - | - | - |
| 1777476303 | 16.67° C | 55% | 1012.5 hPa | 0 mm | - | - | - |
| 1777476004 | 16.67° C | 58% | 1012.7 hPa | 0 mm | - | - | - |
| 1777475703 | 16.67° C | 57% | 1012.9 hPa | 0 mm | - | - | - |
| 1777475404 | 16.11° C | 59% | 1013.2 hPa | 0 mm | - | - | - |
| 1777475104 | 15.56° C | 63% | 1013.3 hPa | 0 mm | - | - | - |
| 1777474804 | 15° C | 59% | 1013.3 hPa | 0 mm | - | - | - |
| 1777474504 | 15° C | 60% | 1013.3 hPa | 0 mm | - | - | - |
| 1777474203 | 14.44° C | 61% | 1013.4 hPa | 0 mm | - | - | - |
| 1777473904 | 14.44° C | 62% | 1013.5 hPa | 0 mm | - | - | - |
| 1777473604 | 14.44° C | 64% | 1013.7 hPa | 0 mm | - | - | - |
| 1777473304 | 13.89° C | 66% | 1013.8 hPa | 0 mm | - | - | - |
| 1777473004 | 13.89° C | 68% | 1014 hPa | 0 mm | - | - | - |
| 1777472703 | 13.33° C | 66% | 1014.2 hPa | 0 mm | - | - | - |
| 1777472404 | 12.78° C | 68% | 1014.3 hPa | 0 mm | - | - | - |
| 1777472104 | 12.22° C | 72% | 1014.2 hPa | 0 mm | - | - | - |
| 1777471804 | 12.22° C | 70% | 1014.1 hPa | 0 mm | - | - | - |
| 1777471504 | 12.22° C | 69% | 1014.2 hPa | 0 mm | - | - | - |
| 1777471203 | 11.67° C | 68% | 1014.3 hPa | 0 mm | - | - | - |
| 1777470904 | 12.22° C | 69% | 1014.5 hPa | 0 mm | - | - | - |
| 1777470604 | 11.67° C | 72% | 1014.8 hPa | 0 mm | - | - | - |
| 1777470303 | 11.67° C | 71% | 1015 hPa | 0 mm | - | - | - |
| 1777470004 | 11.11° C | 72% | 1015.3 hPa | 0 mm | - | - | - |
| 1777469703 | 11.11° C | 73% | 1015.4 hPa | 0 mm | - | - | - |
| 1777469404 | 11.11° C | 72% | 1015.7 hPa | 0 mm | - | - | - |
* Rain latest hour (hover to see other rain measurements)
** Current wind speed in m/s (hover to see current wind gust speed)